User: anonymous   Login
Location: *
(51.0333°S, 178.4667°E)
Time: 16:02:08
(UTC+00:00)
Language:

STARLINK-21 - Orbit

View from above orbital plane
View from above orbital plane
View from above satellite
View from above satellite

Ground track
Ground track

The orbit data is extracted from the following two-line orbital elements,

1 44245U 19029L   20017.58334491  .00026014  00000-0  15041-2 0  9993
2 44245  52.9979 179.3903 0001451  73.9002 152.8473 15.12126438 36097
Epoch (UTC): 17 January 2020 14:00:01
Eccentricity: 0.0001451
inclination: 52.9979°
perigee height: 529 km
apogee height: 531 km
right ascension of ascending node: 179.3903°
argument of perigee: 73.9002°
revolutions per day: 15.12126438
mean anomaly at epoch: 152.8473°
orbit number at epoch: 3609

The dashed part of the orbit path shows where the satellite is in the earth's shadow,  

DLR